TimeEDT,TemperatureF,Dew PointF,Humidity,Sea Level PressureIn,VisibilityMPH,Wind Direction,Wind SpeedMPH,Gust SpeedMPH,PrecipitationIn,Events,Conditions,WindDirDegrees,DateUTC
12:54 AM,48.9,43.0,80,29.88,8.0,ENE,5.8,-,0.00,Rain,Light Rain,70,2013-03-24 04:54:00
1:36 AM,48.2,44.6,87,29.90,2.5,NE,5.8,-,0.01,Rain,Light Rain,40,2013-03-24 05:36:00
1:54 AM,46.9,44.1,90,29.86,2.0,NE,9.2,-,0.10,Rain,Heavy Rain,40,2013-03-24 05:54:00
2:10 AM,48.2,44.6,87,29.86,3.0,NNE,9.2,-,0.04,Rain,Rain,30,2013-03-24 06:10:00
2:54 AM,48.0,44.1,86,29.84,3.0,NNE,9.2,-,0.17,Rain,Rain,30,2013-03-24 06:54:00
3:20 AM,48.2,44.6,87,29.82,4.0,NNE,6.9,-,0.09,Rain-Thunderstorm,Heavy Rain,30,2013-03-24 07:20:00
3:35 AM,48.2,44.6,87,29.80,3.0,NE,8.1,-,0.15,Rain,Heavy Rain,50,2013-03-24 07:35:00
3:43 AM,48.2,44.6,87,29.81,3.0,NE,8.1,-,0.18,Rain-Thunderstorm,Heavy Thunderstorms and Rain,40,2013-03-24 07:43:00
3:54 AM,48.0,44.1,86,29.80,3.0,NE,9.2,-,0.22,Rain-Thunderstorm,Rain,40,2013-03-24 07:54:00
4:07 AM,48.2,44.6,87,29.79,4.0,NE,8.1,-,0.04,Rain,Rain,40,2013-03-24 08:07:00
4:15 AM,48.2,44.6,87,29.79,4.0,NE,5.8,-,0.05,Rain,Rain,50,2013-03-24 08:15:00
4:52 AM,46.4,44.6,93,29.75,4.0,NE,4.6,-,0.12,Rain,Rain,40,2013-03-24 08:52:00
4:54 AM,46.9,44.1,90,29.75,4.0,ENE,5.8,-,0.12,Rain,Rain,60,2013-03-24 08:54:00
5:10 AM,48.2,44.6,87,29.73,5.0,East,9.2,-,0.00,Rain,Light Rain,90,2013-03-24 09:10:00
5:51 AM,46.4,42.8,87,29.68,4.0,ENE,11.5,20.7,0.07,Rain,Rain,60,2013-03-24 09:51:00
5:54 AM,46.9,43.0,86,29.68,3.0,ENE,8.1,20.7,0.08,Rain,Heavy Rain,70,2013-03-24 09:54:00
6:14 AM,46.4,42.8,87,29.65,5.0,ENE,13.8,19.6,0.02,Rain,Light Rain,70,2013-03-24 10:14:00
6:54 AM,46.9,42.1,83,29.65,10.0,NE,9.2,-,0.02,Rain,Light Rain,40,2013-03-24 10:54:00
7:22 AM,46.4,42.8,87,29.74,2.0,SW,10.4,28.8,0.15,Rain,Heavy Rain,220,2013-03-24 11:22:00
7:32 AM,46.4,42.8,87,29.76,1.8,WNW,12.7,38.0,0.25,Rain,Heavy Rain,290,2013-03-24 11:32:00
7:38 AM,46.4,42.8,87,29.67,3.0,ENE,12.7,38.0,0.27,Rain,Heavy Rain,70,2013-03-24 11:38:00
7:43 AM,48.2,42.8,82,29.71,5.0,North,10.4,23.0,0.27,Rain,Light Rain,350,2013-03-24 11:43:00
7:51 AM,46.4,42.8,87,29.71,10.0,NNE,9.2,17.3,0.27,Rain,Light Rain,20,2013-03-24 11:51:00
7:54 AM,48.0,43.0,83,29.72,10.0,North,8.1,-,0.27,Rain,Light Rain,360,2013-03-24 11:54:00
8:26 AM,46.4,42.8,87,29.66,3.0,ENE,17.3,24.2,0.04,Rain,Light Rain,60,2013-03-24 12:26:00
8:54 AM,46.9,42.1,83,29.66,10.0,ENE,13.8,21.9,0.04,,Overcast,60,2013-03-24 12:54:00
9:54 AM,48.0,41.0,77,29.66,10.0,NE,16.1,24.2,0.00,,Overcast,50,2013-03-24 13:54:00
10:28 AM,46.4,41.0,81,29.67,2.0,ENE,13.8,24.2,0.02,Rain,Light Rain,60,2013-03-24 14:28:00
10:36 AM,46.4,41.0,81,29.67,1.8,NE,12.7,-,0.02,Rain,Light Rain,50,2013-03-24 14:36:00
10:43 AM,46.4,41.0,81,29.67,2.0,ENE,18.4,24.2,0.03,Rain,Light Rain,60,2013-03-24 14:43:00
10:54 AM,46.0,41.0,83,29.66,3.0,ENE,16.1,25.3,0.03,Rain,Light Rain,60,2013-03-24 14:54:00
11:17 AM,46.4,39.2,76,29.67,5.0,ENE,12.7,19.6,0.00,Rain,Light Rain,60,2013-03-24 15:17:00
11:54 AM,46.0,39.9,79,29.67,4.0,ENE,15.0,23.0,0.00,Rain,Light Rain,70,2013-03-24 15:54:00
12:08 PM,46.4,41.0,81,29.67,8.0,ENE,11.5,24.2,0.00,,Overcast,60,2013-03-24 16:08:00
12:36 PM,46.4,41.0,81,29.67,10.0,ENE,10.4,-,0.00,,Overcast,70,2013-03-24 16:36:00
12:54 PM,46.9,42.1,83,29.67,6.0,ENE,11.5,-,0.00,,Haze,60,2013-03-24 16:54:00
1:31 PM,46.4,42.8,87,29.65,2.5,ENE,6.9,-,0.00,Rain,Light Rain,60,2013-03-24 17:31:00
1:39 PM,46.4,42.8,87,29.64,4.0,NE,10.4,-,0.00,Rain,Light Rain,50,2013-03-24 17:39:00
1:54 PM,46.9,42.1,83,29.64,7.0,NE,8.1,-,0.00,Rain,Light Rain,50,2013-03-24 17:54:00
2:01 PM,46.4,42.8,87,29.63,8.0,ENE,10.4,-,N/A,,Overcast,60,2013-03-24 18:01:00
2:16 PM,46.4,42.8,87,29.63,8.0,ENE,9.2,-,N/A,,Overcast,70,2013-03-24 18:16:00
2:44 PM,48.2,42.8,82,29.61,10.0,ENE,8.1,-,N/A,,Overcast,70,2013-03-24 18:44:00
3:54 PM,48.9,41.0,74,29.58,10.0,Variable,5.8,-,N/A,,Overcast,0,2013-03-24 19:54:00
4:54 PM,48.0,39.9,74,29.59,10.0,SE,4.6,-,N/A,,Overcast,130,2013-03-24 20:54:00
5:46 PM,48.2,39.2,71,29.59,10.0,SE,3.5,-,N/A,,Overcast,130,2013-03-24 21:46:00
5:54 PM,48.0,39.9,74,29.58,10.0,Calm,Calm,-,N/A,,Overcast,0,2013-03-24 21:54:00
6:42 PM,46.4,39.2,76,29.59,10.0,Calm,Calm,-,N/A,,Overcast,0,2013-03-24 22:42:00
6:54 PM,46.9,39.9,77,29.56,10.0,ESE,4.6,-,N/A,,Overcast,110,2013-03-24 22:54:00
7:15 PM,46.4,39.2,76,29.58,10.0,ESE,3.5,-,N/A,,Overcast,120,2013-03-24 23:15:00
7:54 PM,46.9,39.9,77,29.57,10.0,Calm,Calm,-,N/A,,Overcast,0,2013-03-24 23:54:00
8:15 PM,46.4,39.2,76,29.58,10.0,Variable,3.5,-,N/A,,Overcast,0,2013-03-25 00:15:00
8:40 PM,46.4,41.0,81,29.59,4.0,Calm,Calm,-,0.04,Rain,Rain,0,2013-03-25 00:40:00
8:54 PM,45.0,41.0,86,29.59,3.0,Calm,Calm,-,0.10,Rain,Heavy Rain,0,2013-03-25 00:54:00
9:41 PM,46.4,42.8,87,29.61,5.0,Calm,Calm,-,0.02,Rain,Light Rain,0,2013-03-25 01:41:00
9:51 PM,46.4,42.8,87,29.61,6.0,Calm,Calm,-,0.03,Rain,Light Rain,0,2013-03-25 01:51:00
9:54 PM,46.0,42.1,86,29.61,6.0,Calm,Calm,-,0.03,Rain,Light Rain,0,2013-03-25 01:54:00
10:24 PM,44.6,42.8,93,29.60,7.0,SSW,3.5,-,0.00,,Overcast,210,2013-03-25 02:24:00
10:36 PM,44.6,42.8,93,29.60,6.0,Calm,Calm,-,0.00,,Overcast,0,2013-03-25 02:36:00
10:51 PM,44.6,42.8,93,29.59,5.0,South,4.6,-,0.00,,Overcast,170,2013-03-25 02:51:00
10:54 PM,45.0,42.1,90,29.59,5.0,Calm,Calm,-,0.00,,Overcast,0,2013-03-25 02:54:00
11:01 PM,44.6,42.8,93,29.59,5.0,Calm,Calm,-,N/A,,Overcast,0,2013-03-25 03:01:00
11:54 PM,45.0,42.1,90,29.59,6.0,South,3.5,-,N/A,,Overcast,180,2013-03-25 03:54:00